DW7888 Weather Reports


Display with metric or nautical units.
time (UTC)temp
F
wind
direction
speed
MPH
gust
MPH
rain 1hr
in
rain 24hr
in
rain mn
in
humidity
%
barometer
mb
20260905212021 76 309 0.0 0.0 0.00 1.15 0.95 87 1011.2
20260905211522 76 309 0.0 0.0 0.00 1.15 0.95 88 1011.2
20260905211012 77 275 0.0 0.0 0.00 1.15 0.95 88 1011.2
20260905210518 77 275 0.0 0.0 0.00 1.15 0.95 89 1011.3
20260905210011 76 275 0.0 1.0 0.00 1.15 0.95 88 1011.3
20260905205513 76 162 0.0 1.0 0.00 1.15 0.95 88 1011.4
20260905205016 76 175 0.0 1.0 0.00 1.15 0.95 88 1011.4
20260905204511 76 42 0.0 1.0 0.00 1.15 0.95 88 1011.4
20260905204015 76 42 0.0 1.0 0.00 1.15 0.95 90 1011.3
20260905203516 76 123 0.0 2.0 0.00 1.15 0.95 91 1011.4
20260905203012 76 123 0.0 2.0 0.00 1.15 0.95 92 1011.4
20260905202513 76 159 0.0 2.0 0.00 1.15 0.95 93 1011.4
20260905202014 76 198 0.0 3.0 0.00 1.15 0.95 94 1011.4
20260905201517 75 167 0.0 3.0 0.01 1.15 0.95 94 1011.3
20260905201015 75 83 0.0 2.0 0.01 1.15 0.95 94 1011.5
20260905200516 75 59 0.0 2.0 0.01 1.15 0.95 94 1011.4
20260905200015 75 142 0.0 2.0 0.03 1.15 0.95 94 1011.4
20260905195515 75 209 0.0 4.0 0.05 1.15 0.95 94 1011.3
20260905195018 75 17 0.0 4.0 0.05 1.15 0.95 95 1011.5
20260905194516 75 299 1.0 4.0 0.05 1.15 0.95 95 1011.5
20260905194016 74 323 1.0 3.0 0.05 1.15 0.95 94 1011.6
20260905193515 75 309 0.0 0.0 0.06 1.15 0.95 95 1011.6
20260905193018 74 309 0.0 0.0 0.08 1.15 0.95 95 1011.6
20260905192514 74 306 0.0 0.0 0.08 1.15 0.95 95 1011.6
20260905192018 74 339 0.0 0.0 0.08 1.15 0.95 94 1011.6
20260905191519 74 76 0.0 0.0 0.07 1.14 0.94 94 1011.5
20260905191018 74 148 0.0 0.0 0.07 1.14 0.94 94 1011.6
20260905190514 74 148 0.0 0.0 0.07 1.14 0.94 94 1012.1
20260905190034 74 271 0.0 0.0 0.05 1.12 0.92 94 1012.2
20260905185513 74 271 0.0 0.0 0.03 1.10 0.90 94 1012.4
20260905185006 74 271 0.0 0.0 0.03 1.10 0.90 94 1012.4
20260905184503 74 323 0.0 0.0 0.03 1.10 0.90 94 1012.8
20260905184003 74 323 0.0 0.0 0.03 1.10 0.90 93 1012.4
20260905183508 74 331 0.0 0.0 0.02 1.09 0.89 93 1012.1
20260905183002 74 30 0.0 1.0 0.00 1.07 0.87 92 1012.0
20260905182502 74 207 0.0 1.0 0.00 1.07 0.87 92 1012.1
20260905182009 75 161 0.0 3.0 0.00 1.07 0.87 93 1012.0
20260905181503 74 207 0.0 3.0 0.00 1.07 0.87 93 1012.0
20260905181003 74 143 0.0 3.0 0.00 1.07 0.87 93 1012.1
20260905180505 74 144 0.0 3.0 0.00 1.07 0.87 92 1012.1
20260905180004 74 18 0.0 2.0 0.00 1.07 0.87 93 1012.4
20260905175503 75 102 0.0 2.0 0.01 1.07 0.87 93 1012.3
20260905175011 75 120 0.0 4.0 0.03 1.07 0.87 93 1012.4
20260905174502 75 175 0.0 4.0 0.05 1.07 0.87 94 1012.5
20260905174004 74 201 0.0 4.0 0.07 1.07 0.87 94 1012.7
20260905173508 74 144 0.0 4.0 0.09 1.07 0.87 95 1012.7
20260905173007 73 178 0.0 4.0 0.10 1.07 0.87 94 1012.9
20260905172503 74 174 0.0 3.0 0.23 1.07 0.87 95 1012.8
20260905172011 73 148 1.0 3.0 0.47 1.07 0.87 94 1012.5
20260905171511 73 64 0.0 4.0 0.52 1.07 0.87 94 1012.5
20260905171013 73 31 0.0 4.0 0.71 1.07 0.87 94 1012.6
20260905170510 74 21 1.0 4.0 0.87 1.07 0.87 95 1012.5
20260905170031 74 332 0.0 2.0 0.87 1.07 0.87 94 1012.9
20260905165506 74 348 0.0 2.0 0.86 1.05 0.86 94 1013.4
20260905165010 74 347 0.0 2.0 0.84 1.04 0.84 94 1013.8
20260905164503 74 347 0.0 2.0 0.82 1.02 0.82 93 1014.0
20260905164005 74 350 0.0 1.0 0.80 1.00 0.80 93 1014.3
20260905163511 74 335 0.0 1.0 0.78 0.98 0.78 93 1014.1
20260905163004 74 335 0.0 5.0 0.77 0.97 0.77 92 1014.0
20260905162508 75 333 0.0 5.0 0.64 0.84 0.64 92 1014.2
20260905162015 76 343 1.0 4.0 0.40 0.60 0.40 91 1014.2
20260905161505 77 341 0.0 3.0 0.35 0.55 0.35 89 1014.3
20260905161007 79 331 1.0 4.0 0.16 0.36 0.16 86 1014.0
20260905160512 80 350 0.0 4.0 0.00 0.20 0.00 82 1014.1
20260905160004 80 331 0.0 4.0 0.00 0.20 0.00 80 1013.6
20260905155506 81 328 0.0 4.0 0.00 0.20 0.00 76 1013.2
20260905155011 81 296 1.0 4.0 0.00 0.20 0.00 75 1012.9
20260905154504 82 279 1.0 4.0 0.00 0.20 0.00 76 1012.8
20260905154010 82 21 0.0 5.0 0.00 0.20 0.00 75 1012.4
20260905153513 82 55 0.0 5.0 0.00 0.20 0.00 77 1012.5
20260905153005 82 360 0.0 6.0 0.00 0.20 0.00 78 1012.6
20260905152508 82 30 0.0 6.0 0.00 0.20 0.00 76 1012.7
20260905152015 82 24 1.0 5.0 0.00 0.20 0.00 76 1012.8
20260905151505 82 355 1.0 5.0 0.00 0.20 0.00 76 1012.8
20260905151010 83 321 0.0 5.0 0.00 0.20 0.00 77 1012.8
20260905150513 82 5 0.0 5.0 0.00 0.20 0.00 76 1012.8
20260905150006 83 49 1.0 5.0 0.00 0.20 0.00 73 1012.8
20260905145511 83 329 0.0 5.0 0.00 0.20 0.00 75 1012.9
20260905145019 83 355 1.0 5.0 0.00 0.20 0.00 74 1012.8
20260905144508 82 277 0.0 2.0 0.00 0.20 0.00 76 1012.7
20260905144009 82 306 0.0 2.0 0.00 0.20 0.00 75 1012.8
20260905143515 82 67 0.0 1.0 0.00 0.20 0.00 77 1012.7
20260905143009 82 52 0.0 4.0 0.00 0.20 0.00 77 1012.7
20260905142512 81 30 0.0 4.0 0.00 0.20 0.00 79 1012.8
20260905142019 81 272 0.0 0.0 0.00 0.20 0.00 80 1012.7
20260905141510 80 66 0.0 0.0 0.00 0.20 0.00 83 1012.7
20260905141010 80 52 0.0 0.0 0.00 0.20 0.00 83 1012.6
20260905140517 79 333 0.0 0.0 0.00 0.20 0.00 85 1012.4
20260905140011 78 24 0.0 1.0 0.00 0.20 0.00 87 1012.3
20260905135512 78 88 0.0 1.0 0.00 0.20 0.00 87 1012.4
20260905135016 77 42 0.0 0.0 0.00 0.20 0.00 90 1012.3
20260905134512 76 347 0.0 0.0 0.00 0.20 0.00 90 1012.3
20260905134013 76 39 0.0 0.0 0.00 0.20 0.00 91 1012.1
20260905133519 75 44 0.0 0.0 0.00 0.20 0.00 92 1012.2
20260905133010 75 19 0.0 0.0 0.00 0.20 0.00 93 1012.2
20260905132512 74 41 0.0 0.0 0.00 0.20 0.00 94 1012.2
20260905132005 74 27 0.0 0.0 0.00 0.20 0.00 95 1012.2
20260905131513 73 351 0.0 0.0 0.00 0.20 0.00 96 1012.2
20260905131016 73 301 0.0 0.0 0.00 0.20 0.00 96 1012.2
20260905130503 73 39 0.0 0.0 0.00 0.20 0.00 96 1012.0
20260905130018 73 315 0.0 0.0 0.00 0.20 0.00 97 1011.9
20260905125517 72 315 0.0 0.0 0.00 0.20 0.00 97 1011.9
20260905125006 72 315 0.0 0.0 0.00 0.20 0.00 97 1011.9
20260905124529 72 315 0.0 0.0 0.00 0.20 0.00 97 1012.0
20260905124018 72 315 0.0 0.0 0.00 0.20 0.00 97 1012.1
20260905123505 72 315 0.0 0.0 0.00 0.20 0.00 97 1012.2
20260905123031 71 315 0.0 0.0 0.00 0.20 0.00 97 1012.2
20260905122520 71 196 0.0 0.0 0.00 0.20 0.00 97 1012.2
20260905122006 71 196 0.0 0.0 0.00 0.20 0.00 97 1012.2
20260905121519 71 196 0.0 0.0 0.00 0.20 0.00 97 1012.1
20260905121014 71 196 0.0 0.0 0.00 0.20 0.00 97 1012.1
20260905120508 71 196 0.0 0.0 0.00 0.20 0.00 97 1012.1
20260905120018 71 196 0.0 0.0 0.00 0.20 0.00 97 1012.1
20260905115516 70 196 0.0 0.0 0.00 0.20 0.00 97 1012.0
20260905115008 70 196 0.0 0.0 0.00 0.20 0.00 97 1012.1
20260905114522 70 196 0.0 0.0 0.00 0.20 0.00 97 1012.0
20260905114015 70 355 0.0 0.0 0.00 0.20 0.00 97 1012.0
20260905113512 70 355 0.0 0.0 0.00 0.20 0.00 97 1012.0
20260905113019 70 355 0.0 0.0 0.00 0.20 0.00 97 1012.0
20260905112516 70 355 0.0 0.0 0.00 0.20 0.00 97 1012.0
20260905112008 69 355 0.0 0.0 0.00 0.20 0.00 97 1011.8
20260905111523 69 355 0.0 0.0 0.00 0.20 0.00 97 1011.9
20260905111018 69 355 0.0 0.0 0.00 0.20 0.00 97 1011.9
20260905110513 69 355 0.0 0.0 0.00 0.20 0.00 96 1011.9
20260905110022 69 355 0.0 0.0 0.00 0.20 0.00 96 1011.9
20260905105516 69 355 0.0 0.0 0.00 0.20 0.00 96 1011.9
20260905105008 69 355 0.0 0.0 0.00 0.20 0.00 96 1011.9
20260905104535 69 355 0.0 0.0 0.00 0.20 0.00 96 1011.8
20260905104015 70 355 0.0 0.0 0.00 0.20 0.00 96 1011.7
20260905103509 70 355 0.0 0.0 0.00 0.20 0.00 96 1011.7
20260905103029 70 355 0.0 0.0 0.00 0.20 0.00 96 1011.5
20260905102519 70 355 0.0 0.0 0.00 0.20 0.00 96 1011.6
20260905102010 70 355 0.0 0.0 0.00 0.20 0.00 96 1011.5
20260905101526 70 355 0.0 0.0 0.00 0.20 0.00 96 1011.4
20260905101017 70 355 0.0 0.0 0.00 0.20 0.00 96 1011.3
20260905100513 70 355 0.0 0.0 0.00 0.20 0.00 96 1011.3
20260905100029 70 355 0.0 0.0 0.00 0.20 0.00 96 1011.3
20260905095515 70 355 0.0 0.0 0.00 0.20 0.00 96 1011.3
20260905095011 70 355 0.0 0.0 0.00 0.20 0.00 96 1011.3
20260905094528 70 355 0.0 0.0 0.00 0.20 0.00 96 1011.2
20260905094007 70 355 0.0 0.0 0.00 0.20 0.00 96 1011.3
20260905093511 70 355 0.0 0.0 0.00 0.20 0.00 96 1011.2
20260905093003 70 355 0.0 0.0 0.00 0.20 0.00 96 1011.3
20260905092519 70 355 0.0 0.0 0.00 0.20 0.00 96 1011.3
20260905092012 70 355 0.0 0.0 0.00 0.20 0.00 96 1011.3
20260905091502 70 355 0.0 0.0 0.00 0.20 0.00 96 1011.2
20260905091010 70 355 0.0 0.0 0.00 0.20 0.00 96 1011.1
20260905090513 70 355 0.0 0.0 0.00 0.20 0.00 96 1011.1
20260905090007 70 355 0.0 0.0 0.00 0.20 0.00 96 1011.1
20260905085508 70 355 0.0 0.0 0.00 0.20 0.00 96 1011.2
20260905085016 70 351 0.0 0.0 0.00 0.20 0.00 96 1011.2
20260905084506 70 351 0.0 0.0 0.00 0.20 0.00 96 1011.2
20260905084009 70 351 0.0 0.0 0.00 0.20 0.00 96 1011.2
20260905083513 70 351 0.0 0.0 0.00 0.20 0.00 96 1011.2
20260905083006 70 351 0.0 0.0 0.00 0.20 0.00 96 1011.3
20260905082510 70 351 0.0 0.0 0.00 0.20 0.00 96 1011.3
20260905082012 70 351 0.0 0.0 0.00 0.20 0.00 96 1011.4
20260905081504 70 351 0.0 0.0 0.00 0.20 0.00 96 1011.3
20260905081013 70 351 0.0 0.0 0.00 0.20 0.00 96 1011.3
20260905080501 70 351 0.0 0.0 0.00 0.20 0.00 96 1011.5
20260905080015 70 351 0.0 0.0 0.00 0.20 0.00 96 1011.5
20260905075511 70 351 0.0 0.0 0.00 0.20 0.00 96 1011.6
20260905075002 70 351 0.0 0.0 0.00 0.20 0.00 96 1011.5
20260905074508 70 351 0.0 0.0 0.00 0.20 0.00 96 1011.6
20260905074012 70 351 0.0 0.0 0.00 0.20 0.00 96 1011.7
20260905073502 70 351 0.0 0.0 0.00 0.20 0.00 96 1011.7
20260905073024 70 351 0.0 0.0 0.00 0.20 0.00 96 1011.7
20260905072513 70 351 0.0 0.0 0.00 0.20 0.00 96 1011.8
20260905072003 70 351 0.0 0.0 0.00 0.20 0.00 96 1011.8
20260905071508 70 351 0.0 0.0 0.00 0.20 0.00 96 1011.9
20260905071011 70 351 0.0 0.0 0.00 0.20 0.00 96 1011.9
20260905070507 70 351 0.0 0.0 0.00 0.20 0.00 96 1012.0
20260905070011 70 351 0.0 0.0 0.00 0.20 0.00 96 1012.0
20260905065513 70 351 0.0 0.0 0.00 0.20 0.00 96 1012.0
20260905065003 70 351 0.0 0.0 0.00 0.20 0.00 96 1012.2
20260905064515 70 351 0.0 0.0 0.00 0.20 0.00 96 1012.2
20260905064015 70 351 0.0 0.0 0.00 0.20 0.00 96 1012.2
20260905063510 70 351 0.0 0.0 0.00 0.20 0.00 96 1012.1
20260905063014 70 351 0.0 0.0 0.00 0.20 0.00 96 1012.1
20260905062513 70 351 0.0 0.0 0.00 0.20 0.00 95 1012.2
20260905062009 70 351 0.0 0.0 0.00 0.20 0.00 95 1012.2
20260905061512 70 351 0.0 0.0 0.00 0.20 0.00 95 1012.4
20260905061015 70 351 0.0 0.0 0.00 0.20 0.00 96 1012.5
20260905060504 71 351 0.0 0.0 0.00 0.20 0.00 95 1012.5
20260905060014 71 351 0.0 0.0 0.00 0.20 0.00 95 1012.6
20260905055516 71 351 0.0 0.0 0.00 0.20 0.00 95 1012.7
20260905055007 71 351 0.0 0.0 0.00 0.20 0.00 95 1012.7
20260905054518 71 351 0.0 0.0 0.00 0.20 0.00 95 1012.8
20260905054013 71 351 0.0 0.0 0.00 0.20 0.00 95 1012.8
20260905053506 71 351 0.0 0.0 0.00 0.20 0.00 95 1012.7
20260905053021 71 351 0.0 0.0 0.00 0.20 0.00 95 1012.8
20260905052514 71 351 0.0 0.0 0.00 0.20 0.00 95 1013.0
20260905052006 71 351 0.0 0.0 0.00 0.20 0.00 95 1013.2
20260905051523 71 351 0.0 0.0 0.00 0.20 0.00 95 1013.2
20260905051013 71 351 0.0 0.0 0.00 0.20 0.00 95 1013.3
20260905050506 71 351 0.0 0.0 0.00 0.20 0.00 95 1013.4
20260905050022 71 351 0.0 0.0 0.00 0.20 0.00 95 1013.5
20260905045513 71 351 0.0 0.0 0.00 0.20 0.00 95 1013.6
20260905045011 71 351 0.0 0.0 0.00 0.20 0.00 95 1013.7
20260905044526 71 351 0.0 0.0 0.00 0.20 0.00 95 1013.7
20260905044019 71 351 0.0 0.0 0.00 0.20 0.00 95 1013.8
20260905043507 71 351 0.0 0.0 0.00 0.20 0.00 95 1013.8
20260905043023 71 351 0.0 0.0 0.00 0.20 0.00 95 1013.9
20260905042518 71 351 0.0 0.0 0.00 0.20 0.00 95 1013.9
20260905042010 72 351 0.0 0.0 0.00 0.20 0.00 95 1013.9
20260905041526 72 351 0.0 0.0 0.00 0.20 0.00 95 1013.9
20260905041018 72 351 0.0 0.0 0.00 0.20 0.00 95 1013.9
20260905040509 72 351 0.0 0.0 0.00 0.20 0.00 95 1014.1
20260905040030 72 351 0.0 0.0 0.00 0.20 0.00 95 1014.0
20260905035519 72 351 0.0 0.0 0.00 0.20 0.20 95 1014.1
20260905035011 72 351 0.0 0.0 0.00 0.20 0.20 95 1014.0
20260905034529 72 351 0.0 0.0 0.00 0.20 0.20 95 1014.0
20260905034015 72 351 0.0 0.0 0.00 0.20 0.20 95 1014.1
20260905033508 72 351 0.0 0.0 0.00 0.20 0.20 95 1014.1
20260905033023 72 351 0.0 2.0 0.00 0.20 0.20 95 1014.1
20260905032518 72 351 0.0 2.0 0.00 0.20 0.20 95 1014.1
20260905032010 72 351 0.0 2.0 0.00 0.20 0.20 95 1014.1
20260905031524 72 46 0.0 2.0 0.00 0.20 0.20 95 1014.0
20260905031016 72 67 0.0 2.0 0.00 0.20 0.20 95 1014.0
20260905030511 72 63 0.0 4.0 0.00 0.20 0.20 95 1013.8
20260905030029 72 280 0.0 4.0 0.00 0.20 0.20 95 1013.7
20260905025518 73 67 0.0 2.0 0.00 0.20 0.20 95 1013.6
20260905025013 73 187 0.0 2.0 0.00 0.20 0.20 95 1013.6
20260905024527 73 73 0.0 0.0 0.00 0.20 0.20 96 1013.8
20260905024020 72 96 0.0 0.0 0.00 0.20 0.20 95 1013.9
20260905023511 72 11 0.0 0.0 0.00 0.20 0.20 95 1014.0
20260905023034 72 11 0.0 0.0 0.00 0.20 0.20 95 1014.1
20260905022512 72 11 0.0 0.0 0.00 0.20 0.20 95 1014.1
20260905022015 72 345 0.0 0.0 0.00 0.20 0.20 95 1014.4
20260905021535 72 345 0.0 0.0 0.00 0.20 0.20 95 1014.3
20260905021010 72 345 0.0 0.0 0.00 0.20 0.20 95 1014.3
20260905020513 72 345 0.0 0.0 0.00 0.20 0.20 95 1014.2
20260905020030 72 345 0.0 0.0 0.00 0.20 0.20 95 1014.3
20260905015507 72 61 0.0 0.0 0.00 0.20 0.20 95 1014.2
20260905015013 72 346 0.0 0.0 0.00 0.20 0.20 95 1014.1
20260905014535 72 306 0.0 0.0 0.00 0.20 0.20 95 1014.2
20260905014012 72 306 0.0 0.0 0.00 0.20 0.20 95 1014.2
20260905013519 73 177 0.0 0.0 0.00 0.20 0.20 95 1014.2
20260905013030 73 177 0.0 0.0 0.00 0.20 0.20 95 1014.1
20260905012511 73 177 0.0 0.0 0.00 0.20 0.20 95 1014.0
20260905012017 73 177 0.0 0.0 0.00 0.20 0.20 95 1014.0
20260905011531 73 177 0.0 0.0 0.00 0.20 0.20 95 1013.9
20260905011010 72 177 0.0 0.0 0.00 0.20 0.20 95 1013.6
20260905010516 73 177 0.0 0.0 0.00 0.20 0.20 95 1013.3
20260905010033 72 177 0.0 0.0 0.00 0.20 0.20 95 1013.1
20260905005509 73 177 0.0 0.0 0.00 0.20 0.20 95 1013.0
20260905005016 73 177 0.0 0.0 0.00 0.20 0.20 95 1013.0
20260905004510 73 177 0.0 2.0 0.00 0.20 0.20 95 1013.0
20260905004012 73 177 0.0 2.0 0.00 0.20 0.20 95 1012.8
20260905003503 73 57 0.0 1.0 0.00 0.20 0.20 94 1013.1
20260905003016 73 57 0.0 1.0 0.00 0.20 0.20 94 1013.3
20260905002510 73 57 0.0 2.0 0.01 0.20 0.20 94 1012.7
20260905002003 73 57 0.0 2.0 0.01 0.20 0.20 94 1012.7
20260905001509 73 344 0.0 1.0 0.01 0.20 0.20 94 1012.6
20260905001014 73 344 0.0 1.0 0.01 0.20 0.20 94 1012.0
20260905000503 73 344 0.0 1.0 0.01 0.20 0.20 94 1011.9
20260905000026 73 344 0.0 2.0 0.02 0.20 0.20 94 1011.9
20260904235518 73 344 0.0 3.0 0.11 0.20 0.20 94 1012.2
20260904235003 73 360 0.0 3.0 0.11 0.20 0.20 93 1012.3
20260904234541 73 345 1.0 7.0 0.11 0.20 0.20 93 1012.2
20260904234019 73 138 0.0 7.0 0.11 0.20 0.20 93 1011.9
20260904233503 73 176 2.0 7.0 0.11 0.20 0.20 93 1012.2
20260904233015 73 149 0.0 5.0 0.11 0.20 0.20 93 1012.9
20260904232514 73 153 2.0 5.0 0.10 0.19 0.19 93 1013.4
20260904232006 73 166 0.0 2.0 0.10 0.19 0.19 93 1014.1
20260904231516 74 171 0.0 3.0 0.10 0.19 0.19 93 1014.4
20260904231014 74 176 0.0 3.0 0.10 0.19 0.19 93 1015.0
20260904230504 74 171 0.0 3.0 0.10 0.19 0.19 93 1015.2
20260904230021 75 202 0.0 2.0 0.09 0.18 0.18 93 1015.2
20260904225520 74 157 0.0 0.0 0.06 0.09 0.09 93 1014.7
20260904225003 75 157 0.0 0.0 0.09 0.09 0.09 93 1014.4
20260904224525 75 157 0.0 0.0 0.09 0.09 0.09 93 1014.2
20260904224016 75 157 0.0 0.0 0.09 0.09 0.09 93 1014.0
20260904223506 74 223 0.0 0.0 0.09 0.09 0.09 92 1014.8
20260904223017 74 269 0.0 0.0 0.09 0.09 0.09 91 1014.9
20260904222516 74 338 0.0 1.0 0.09 0.09 0.09 90 1014.6
20260904222006 75 134 0.0 6.0 0.09 0.09 0.09 90 1014.1
20260904221521 75 42 0.0 6.0 0.09 0.09 0.09 89 1014.3
20260904221014 75 38 1.0 9.0 0.09 0.09 0.09 88 1014.3
20260904220506 76 205 0.0 9.0 0.09 0.09 0.09 86 1014.4
20260904220030 77 348 3.0 14.0 0.09 0.09 0.09 84 1014.1
20260904215516 79 317 2.0 14.0 0.03 0.03 0.03 80 1014.2
20260904215007 80 278 5.0 14.0 0.00 0.00 0.00 74 1015.1
20260904214534 82 309 3.0 11.0 0.00 0.00 0.00 70 1014.1
20260904214016 83 312 3.0 14.0 0.00 0.00 0.00 66 1013.4
20260904213507 85 5 4.0 14.0 0.00 0.00 0.00 65 1013.2
20260904213024 86 335 5.0 15.0 0.00 0.00 0.00 64 1012.7
20260904212519 89 12 5.0 15.0 0.00 0.00 0.00 64 1012.7